| time (UTC) | temp F | wind direction | speed knots | gust knots | rain 1hr in | rain 24hr in | rain mn in | humidity % | barometer mb |
| 20260506103029 | 52 | 318 | 2.6 | 6.1 | 0.00 | 0.00 | 0.00 | 33 | 1013.5 |
| 20260506101532 | 52 | 317 | 3.5 | 9.6 | 0.00 | 0.00 | 0.00 | 30 | 1013.4 |
| 20260506100031 | 52 | 277 | 3.5 | 8.7 | 0.00 | 0.00 | 0.00 | 32 | 1013.4 |
| 20260506094532 | 53 | 309 | 4.3 | 11.3 | 0.00 | 0.00 | 0.00 | 30 | 1013.3 |
| 20260506093023 | 53 | 319 | 4.3 | 9.6 | 0.00 | 0.00 | 0.00 | 33 | 1013.2 |
| 20260506091522 | 51 | 291 | 3.5 | 7.0 | 0.00 | 0.00 | 0.00 | 36 | 1013.2 |
| 20260506090019 | 51 | 296 | 2.6 | 8.7 | 0.00 | 0.00 | 0.00 | 38 | 1013.1 |
| 20260506084519 | 49 | 298 | 2.6 | 7.8 | 0.00 | 0.00 | 0.00 | 38 | 1013.1 |
| 20260506083034 | 51 | 291 | 2.6 | 8.7 | 0.00 | 0.00 | 0.00 | 38 | 1013.0 |
| 20260506081516 | 50 | 303 | 2.6 | 6.1 | 0.00 | 0.00 | 0.00 | 39 | 1013.0 |
| 20260506073010 | 49 | 319 | 2.6 | 9.6 | 0.00 | 0.00 | 0.00 | 47 | 1012.6 |
| 20260506071506 | 48 | 297 | 3.5 | 7.0 | 0.00 | 0.00 | 0.00 | 48 | 1012.5 |
| 20260506061554 | 45 | 311 | 0.9 | 7.0 | 0.00 | 0.00 | 0.00 | 60 | 1012.2 |
| 20260506044534 | 34 | 304 | 0.0 | 2.6 | 0.00 | 0.00 | 0.00 | 91 | 1011.3 |
| 20260506043027 | 32 | 324 | 0.9 | 2.6 | 0.00 | 0.00 | 0.00 | 91 | 1011.2 |
| 20260506041523 | 31 | 324 | 0.9 | 2.6 | 0.00 | 0.00 | 0.00 | 91 | 1011.0 |
| 20260506040033 | 31 | 312 | 0.0 | 3.5 | 0.00 | 0.00 | 0.00 | 91 | 1010.9 |
| 20260506034518 | 29 | 294 | 0.9 | 2.6 | 0.00 | 0.00 | 0.00 | 91 | 1010.8 |
| 20260506033016 | 28 | 321 | 0.9 | 3.5 | 0.00 | 0.00 | 0.00 | 90 | 1010.6 |
| 20260506031514 | 27 | 324 | 0.9 | 4.3 | 0.00 | 0.00 | 0.00 | 89 | 1010.5 |
| 20260506030010 | 27 | 273 | 0.0 | 1.7 | 0.00 | 0.00 | 0.00 | 89 | 1010.3 |
| 20260506024523 | 27 | 254 | 0.9 | 2.6 | 0.00 | 0.00 | 0.00 | 89 | 1010.1 |
| 20260506023006 | 27 | 218 | 0.0 | 1.7 | 0.00 | 0.00 | 0.00 | 88 | 1010.0 |
| 20260506021506 | 27 | 279 | 0.0 | 0.9 | 0.00 | 0.00 | 0.00 | 88 | 1009.9 |
| 20260506020004 | 27 | 263 | 0.0 | 2.6 | 0.00 | 0.00 | 0.00 | 87 | 1009.9 |
| 20260506014506 | 27 | 263 | 0.0 | 1.7 | 0.00 | 0.00 | 0.00 | 86 | 1009.8 |
| 20260506013001 | 27 | 281 | 0.0 | 1.7 | 0.00 | 0.00 | 0.00 | 86 | 1009.7 |
| 20260506011558 | 27 | 290 | 0.0 | 1.7 | 0.00 | 0.00 | 0.00 | 84 | 1009.5 |
| 20260506010058 | 28 | 276 | 0.0 | 1.7 | 0.00 | 0.00 | 0.00 | 83 | 1009.3 |
| 20260506004553 | 29 | 237 | 0.0 | 2.6 | 0.00 | 0.00 | 0.00 | 83 | 1009.2 |
| 20260506003057 | 29 | 238 | 0.0 | 1.7 | 0.00 | 0.00 | 0.00 | 83 | 1009.1 |
| 20260506001604 | 30 | 233 | 0.0 | 2.6 | 0.00 | 0.00 | 0.00 | 83 | 1008.9 |
| 20260506000052 | 30 | 258 | 0.0 | 2.6 | 0.00 | 0.00 | 0.00 | 84 | 1008.9 |
| 20260505234607 | 30 | 259 | 0.9 | 3.5 | 0.00 | 0.00 | 0.00 | 85 | 1008.8 |
| 20260505233050 | 30 | 259 | 0.9 | 2.6 | 0.00 | 0.00 | 0.00 | 85 | 1008.7 |
| 20260505231547 | 30 | 274 | 1.7 | 2.6 | 0.00 | 0.00 | 0.00 | 83 | 1008.7 |
| 20260505230048 | 30 | 292 | 0.9 | 4.3 | 0.00 | 0.00 | 0.00 | 84 | 1008.6 |
| 20260505224547 | 29 | 252 | 0.9 | 4.3 | 0.00 | 0.00 | 0.00 | 85 | 1008.7 |
| 20260505223057 | 29 | 267 | 0.9 | 2.6 | 0.00 | 0.00 | 0.00 | 84 | 1008.7 |
| 20260505221543 | 29 | 274 | 0.9 | 2.6 | 0.00 | 0.00 | 0.00 | 81 | 1008.6 |
| 20260505220043 | 29 | 266 | 0.0 | 3.5 | 0.00 | 0.00 | 0.00 | 79 | 1008.5 |
| 20260505214551 | 30 | 250 | 0.0 | 1.7 | 0.00 | 0.01 | 0.00 | 79 | 1008.5 |
| 20260505213037 | 30 | 250 | 0.0 | 1.7 | 0.00 | 0.01 | 0.00 | 79 | 1008.4 |
| 20260505211542 | 30 | 289 | 0.0 | 1.7 | 0.00 | 0.01 | 0.00 | 79 | 1008.3 |
| 20260505210032 | 31 | 259 | 0.9 | 1.7 | 0.00 | 0.01 | 0.00 | 76 | 1008.3 |
| 20260505204528 | 31 | 255 | 0.0 | 1.7 | 0.00 | 0.02 | 0.01 | 73 | 1008.2 |
| 20260505203032 | 32 | 228 | 0.9 | 3.5 | 0.00 | 0.02 | 0.01 | 72 | 1008.0 |
| 20260505201522 | 33 | 289 | 0.0 | 1.7 | 0.00 | 0.02 | 0.01 | 72 | 1007.9 |
| 20260505200020 | 34 | 289 | 0.9 | 2.6 | 0.00 | 0.02 | 0.01 | 71 | 1007.8 |
| 20260505194518 | 34 | 280 | 0.9 | 2.6 | 0.00 | 0.02 | 0.01 | 72 | 1007.6 |
| 20260505193016 | 35 | 280 | 0.9 | 2.6 | 0.00 | 0.02 | 0.01 | 71 | 1007.6 |
| 20260505191513 | 36 | 279 | 0.9 | 1.7 | 0.00 | 0.02 | 0.01 | 71 | 1007.6 |
| 20260505190015 | 37 | 279 | 0.0 | 2.6 | 0.00 | 0.02 | 0.01 | 69 | 1007.3 |
| 20260505184508 | 38 | 263 | 0.0 | 1.7 | 0.00 | 0.02 | 0.01 | 67 | 1007.2 |
| 20260505183003 | 38 | 261 | 0.9 | 3.5 | 0.00 | 0.02 | 0.01 | 66 | 1007.1 |
| 20260505181600 | 39 | 243 | 0.9 | 2.6 | 0.00 | 0.02 | 0.01 | 65 | 1006.9 |
| 20260505180104 | 40 | 288 | 1.7 | 3.5 | 0.00 | 0.02 | 0.01 | 64 | 1006.7 |
| 20260505174555 | 41 | 308 | 1.7 | 4.3 | 0.00 | 0.02 | 0.01 | 62 | 1006.6 |
| 20260505173056 | 42 | 298 | 1.7 | 3.5 | 0.00 | 0.02 | 0.01 | 60 | 1006.5 |
| 20260505171556 | 42 | 292 | 1.7 | 3.5 | 0.00 | 0.02 | 0.01 | 62 | 1006.4 |
| 20260505170052 | 42 | 301 | 2.6 | 7.8 | 0.00 | 0.02 | 0.01 | 60 | 1006.4 |
| 20260505164551 | 44 | 302 | 2.6 | 3.5 | 0.00 | 0.02 | 0.01 | 56 | 1006.3 |
| 20260505163051 | 44 | 298 | 2.6 | 5.2 | 0.00 | 0.02 | 0.01 | 55 | 1006.2 |
| 20260505161549 | 44 | 300 | 2.6 | 6.1 | 0.00 | 0.02 | 0.01 | 56 | 1006.0 |
| 20260505153051 | 45 | 296 | 2.6 | 4.3 | 0.00 | 0.02 | 0.01 | 54 | 1005.8 |
| 20260505151548 | 47 | 296 | 4.3 | 7.8 | 0.00 | 0.02 | 0.01 | 51 | 1005.7 |
| 20260505124535 | 52 | 296 | 5.2 | 11.3 | 0.00 | 0.02 | 0.01 | 46 | 1004.7 |
| 20260505123034 | 50 | 299 | 2.6 | 9.6 | 0.00 | 0.02 | 0.01 | 46 | 1004.6 |
| 20260505121537 | 49 | 304 | 2.6 | 6.1 | 0.00 | 0.02 | 0.01 | 47 | 1004.4 |
| 20260505120031 | 51 | 304 | 2.6 | 7.0 | 0.00 | 0.02 | 0.01 | 44 | 1004.4 |
| 20260505114529 | 51 | 328 | 4.3 | 7.8 | 0.00 | 0.02 | 0.01 | 42 | 1004.2 |
| 20260505113038 | 51 | 324 | 5.2 | 12.2 | 0.00 | 0.02 | 0.01 | 47 | 1004.2 |
| 20260505111539 | 47 | 283 | 1.7 | 5.2 | 0.00 | 0.02 | 0.01 | 54 | 1004.2 |